Wind_Speed
45 46 46 46 46 47 48 49 49 50 50 49 49 49 49 49 49 49 49 50 50 50 49 49 49 50 50 50 51 51 51 51 51 51 51 51 52 53 53 53 52 51 52
46 46 47 47 48 47 47 48 49 50 50 50 50 50 50 50 51 51 51 51 51 51 51 51 52 52 52 53 53 53 53 53 53 52 52 52 52 53 54 54 54 53 53
46 47 48 47 48 49 49 49 50 51 51 50 50 50 49 50 50 50 51 51 51 51 52 52 53 53 54 54 54 54 55 55 55 54 53 53 53 54 54 54 55 55 55
46 46 47 47 48 49 49 50 51 51 52 52 51 51 51 50 51 51 51 51 51 52 52 53 53 54 55 55 56 56 56 57 57 56 55 54 55 55 56 55 56 57 56
46 47 48 48 48 49 49 50 51 52 53 53 52 52 52 52 52 51 52 52 53 53 53 54 55 56 56 57 57 57 57 58 58 58 57 56 56 57 58 58 58 58 58
46 46 47 48 48 49 48 49 50 51 52 53 53 52 52 52 53 52 53 54 54 54 53 54 55 56 56 57 57 58 58 59 59 59 59 59 58 59 60 60 60 59 58
46 46 47 47 48 49 49 49 49 50 51 52 53 53 53 53 53 53 53 54 54 54 54 53 54 55 57 57 57 57 58 58 59 60 60 60 60 60 61 61 62 61 60
45 46 46 47 47 48 49 49 49 49 50 50 52 52 53 53 53 53 53 53 53 53 53 53 53 55 57 57 58 58 58 59 59 60 60 59 60 60 61 61 62 62 60
43 44 45 46 46 47 47 48 48 48 48 49 50 51 52 52 53 53 53 53 53 53 53 53 54 54 55 56 57 58 58 58 59 59 59 59 60 60 61 61 61 61 61
42 43 44 45 46 47 47 48 48 47 47 47 48 49 50 51 52 53 54 54 54 54 54 55 55 55 55 56 56 57 57 57 58 59 59 59 60 60 61 61 62 62 62
42 43 43 44 45 45 46 46 47 47 46 46 46 47 49 51 52 53 54 55 55 55 56 56 55 55 56 56 57 57 57 58 58 59 58 59 60 61 61 61 61 62 62
42 43 43 43 44 45 45 45 46 46 46 46 46 46 48 49 51 52 53 54 55 55 54 55 55 55 56 56 56 56 56 57 58 58 57 58 59 59 59 60 60 60 60
42 43 43 43 44 44 45 45 46 46 47 47 47 47 48 48 50 51 52 53 53 54 54 54 55 56 56 55 54 54 55 56 57 57 57 57 57 58 58 58 58 59 58
41 42 42 43 43 44 44 44 45 46 46 47 47 48 48 49 49 50 51 52 52 52 53 54 54 54 54 55 54 54 54 55 55 56 56 56 56 56 57 57 57 56 56
41 41 42 43 43 43 44 44 45 45 46 46 47 48 48 48 48 48 48 49 49 51 52 53 53 53 53 53 53 53 53 53 53 54 54 54 54 54 54 55 55 54 54
41 42 42 42 42 43 44 44 45 45 46 46 46 47 47 48 48 47 47 47 48 49 50 50 51 51 51 51 51 51 51 51 51 51 52 53 52 52 52 52 53 53 53
40 40 41 41 41 42 42 43 44 45 45 45 46 46 46 46 46 47 47 46 46 47 47 47 47 48 48 48 49 49 49 49 49 49 50 50 50 50 50 51 51 52 51
39 39 39 39 40 41 41 42 42 42 43 43 44 44 44 44 44 45 45 45 45 45 45 45 45 45 45 45 46 47 47 47 48 47 47 48 49 49 50 50 50 51 50
38 37 37 38 39 39 39 40 40 40 40 41 42 42 43 43 43 43 43 43 43 43 43 43 43 44 44 45 45 46 46 46 46 46 46 47 48 49 49 49 49 49 49
37 36 36 36 37 37 37 38 38 39 39 40 40 41 41 42 42 42 42 42 41 41 41 42 42 43 43 44 44 45 45 46 46 46 46 46 47 48 48 48 48 48 48
36 36 36 35 35 35 35 36 37 38 39 39 39 39 39 39 40 40 40 41 41 41 41 41 41 41 42 42 43 44 44 45 45 45 45 45 45 46 47 47 47 47 47
34 34 34 34 34 34 34 35 36 36 36 36 36 37 37 37 37 38 38 38 39 40 40 39 39 39 40 40 40 41 42 43 43 44 44 44 44 44 44 45 45 46 46
33 32 32 33 33 33 33 33 34 34 33 33 33 34 34 34 35 35 36 36 37 37 38 38 38 38 38 39 39 39 39 40 41 41 42 42 42 42 42 43 43 44 44
32 32 32 32 33 32 32 32 31 31 31 31 32 32 32 33 33 33 34 34 35 35 36 36 36 36 37 37 37 37 38 38 38 39 39 40 40 40 40 41 41 42 42
31 31 31 32 32 31 31 30 29 29 29 29 30 30 30 30 30 31 31 32 32 33 34 35 35 35 35 35 35 36 36 36 36 37 37 37 38 38 39 39 39 40 40
30 30 30 30 30 29 29 28 28 28 28 29 29 29 29 30 30 30 31 31 31 32 33 33 34 34 34 34 34 34 34 35 35 36 36 36 36 37 37 37 37 38 38
Wind_Direction
262 262 262 262 261 261 261 261 261 260 260 260 260 260 260 259 259 259 259 259 260 259 260 260 260 260 260 259 258 258 258 258 258 257 258 258 259 259 259 259 259 260 261
263 262 262 262 262 262 261 261 262 261 260 260 260 260 259 259 259 259 259 260 260 260 260 260 260 259 259 259 259 259 259 258 258 258 259 259 260 260 260 259 259 259 261
264 263 262 262 262 262 262 261 261 261 261 261 260 259 259 259 259 259 259 259 260 260 261 261 261 260 260 259 259 260 260 259 259 259 259 260 260 260 260 260 259 260 261
266 264 263 262 262 262 263 263 261 261 261 260 260 259 258 260 260 259 259 260 260 261 261 261 262 261 261 260 260 260 260 260 260 259 259 260 261 261 261 260 259 260 260
267 265 264 264 263 263 264 264 262 261 260 260 259 259 259 259 260 260 260 260 261 261 262 262 263 263 262 261 261 261 261 261 260 260 260 261 262 262 262 261 260 259 259
267 266 265 265 265 264 264 264 264 262 260 259 259 259 260 260 260 260 261 261 261 261 262 263 263 263 262 262 262 261 261 261 261 261 261 261 262 262 262 262 261 260 259
268 267 266 266 265 265 265 265 265 263 261 259 260 260 260 261 261 261 261 261 262 262 263 263 263 263 263 263 262 262 262 262 262 262 262 262 262 262 263 263 263 261 260
269 268 268 267 266 266 266 265 265 264 262 261 260 260 261 261 261 261 261 261 262 262 263 264 264 264 264 263 263 262 262 262 262 262 263 262 262 262 263 263 263 262 260
271 270 269 268 267 267 267 265 264 264 264 262 261 261 261 261 261 261 261 262 262 262 263 264 264 264 264 263 263 263 263 262 262 263 262 262 261 261 262 262 262 262 261
272 271 270 269 269 268 267 265 264 264 264 264 263 261 261 261 261 262 263 263 263 263 263 264 264 264 264 264 263 263 263 262 262 262 262 262 261 262 262 263 262 261 261
272 272 271 271 270 269 268 266 265 265 265 264 264 263 262 262 263 263 264 264 264 264 264 264 264 264 264 264 264 264 264 263 262 262 262 262 262 262 263 263 263 262 261
273 272 272 272 271 269 268 267 266 265 265 265 265 264 264 263 263 264 265 265 266 265 265 265 264 264 264 265 264 264 264 263 262 261 261 261 262 262 262 263 263 262 261
273 273 273 273 271 269 268 267 266 266 266 266 267 266 265 266 265 265 265 266 266 266 266 265 265 264 264 264 264 264 264 263 262 262 262 262 262 262 262 262 262 262 261
274 274 273 273 271 270 269 268 267 266 267 268 267 267 267 267 267 266 266 266 266 266 266 266 265 265 264 264 264 264 264 263 262 262 262 262 263 263 263 262 262 261 260
275 274 274 273 271 270 269 268 267 267 268 268 268 268 268 268 267 267 268 266 266 266 267 266 266 265 264 264 264 264 264 264 264 264 263 263 263 263 263 262 261 260 260
277 275 274 273 271 271 270 269 268 268 268 269 269 269 269 269 269 268 269 269 269 268 267 267 266 266 265 264 264 264 264 263 264 264 263 262 262 262 262 262 261 259 259
279 277 274 273 272 272 271 270 269 269 269 269 270 270 271 270 270 270 270 270 270 269 268 267 267 267 266 265 265 264 264 264 264 264 263 263 262 261 261 261 261 259 258
280 279 277 275 274 273 272 271 270 270 269 270 270 271 270 270 270 270 270 269 269 268 267 267 267 267 266 266 265 265 265 265 264 263 263 262 261 260 261 261 261 259 258
282 280 278 277 276 274 273 272 271 271 270 271 271 271 270 270 270 269 270 269 269 268 268 267 266 266 266 265 265 265 265 264 263 263 263 263 261 261 261 261 260 259 258
283 281 279 278 277 276 274 273 273 272 272 272 272 272 271 270 270 270 270 270 269 269 269 268 266 266 266 265 265 265 264 263 262 262 262 262 262 261 261 261 260 259 258
284 282 281 280 279 278 276 274 274 273 273 273 274 273 272 270 269 270 270 269 269 269 269 268 267 267 267 266 265 265 264 263 261 262 262 261 262 261 261 260 260 259 257
285 284 283 282 281 280 278 276 275 274 274 274 274 273 272 271 270 270 269 269 269 270 270 270 268 268 267 267 267 266 265 263 262 263 262 261 261 261 260 259 259 259 258
284 284 283 283 283 282 281 279 277 275 274 273 272 272 272 272 271 271 270 270 270 271 271 270 269 269 268 267 267 266 265 264 264 263 262 261 261 261 260 260 260 260 258
284 284 284 284 283 283 283 282 280 277 276 274 273 273 273 272 271 271 271 270 270 270 270 270 270 270 269 269 267 267 266 265 264 263 263 262 261 261 262 262 262 261 259
284 284 284 284 284 284 283 282 280 279 278 276 275 274 274 274 273 273 272 272 272 271 271 271 270 270 270 269 269 268 267 266 265 264 263 262 262 262 262 262 262 261 260
286 285 285 285 285 284 283 282 281 280 279 278 277 276 276 275 275 275 274 273 273 273 273 272 271 271 270 270 269 268 267 267 266 265 264 263 263 262 263 263 263 262 261
Height
5619 5619 5620 5619 5620 5620 5621 5622 5623 5625 5626 5627 5628 5630 5631 5632 5634 5635 5637 5638 5639 5640 5642 5643 5645 5646 5648 5649 5650 5652 5653 5655 5657 5660 5661 5662 5663 5665 5666 5668 5669 5671 5672
5606 5606 5606 5606 5606 5607 5607 5608 5609 5611 5612 5613 5614 5616 5617 5619 5620 5621 5623 5624 5625 5626 5628 5629 5631 5632 5634 5635 5636 5638 5639 5640 5643 5645 5646 5647 5649 5650 5651 5653 5655 5656 5658
5593 5593 5593 5593 5593 5593 5594 5594 5595 5596 5597 5598 5600 5601 5603 5604 5606 5607 5608 5610 5611 5612 5614 5615 5616 5617 5619 5620 5621 5623 5624 5625 5627 5630 5632 5633 5634 5635 5636 5638 5639 5641 5642
5579 5579 5579 5579 5579 5579 5580 5580 5580 5581 5582 5583 5585 5586 5588 5589 5591 5592 5594 5595 5596 5598 5599 5600 5601 5603 5604 5605 5606 5608 5609 5610 5612 5614 5616 5618 5618 5619 5620 5622 5624 5625 5627
5565 5565 5565 5564 5565 5565 5565 5565 5565 5566 5567 5568 5570 5571 5573 5574 5576 5577 5579 5580 5581 5583 5584 5585 5586 5587 5588 5589 5591 5592 5593 5594 5596 5598 5600 5602 5603 5603 5605 5606 5608 5609 5610
5552 5551 5551 5551 5550 5551 5551 5551 5550 5551 5552 5553 5555 5556 5558 5559 5561 5562 5563 5565 5566 5567 5568 5569 5570 5571 5572 5573 5574 5576 5577 5578 5580 5582 5584 5586 5587 5587 5588 5589 5590 5592 5595
5538 5537 5537 5537 5536 5536 5536 5536 5536 5536 5537 5538 5540 5541 5543 5544 5545 5547 5548 5549 5550 5552 5553 5554 5554 5555 5556 5557 5558 5559 5560 5561 5563 5565 5567 5568 5570 5571 5571 5572 5573 5575 5577
5524 5524 5523 5523 5522 5522 5521 5521 5521 5522 5523 5524 5525 5526 5528 5529 5530 5531 5532 5533 5534 5536 5537 5538 5538 5539 5540 5540 5541 5543 5544 5545 5547 5548 5551 5552 5552 5552 5553 5555 5555 5557 5560
5511 5510 5509 5509 5508 5508 5507 5507 5507 5508 5508 5509 5510 5511 5512 5514 5514 5515 5516 5517 5519 5520 5521 5522 5522 5523 5523 5524 5524 5526 5527 5528 5529 5530 5532 5533 5534 5534 5535 5537 5538 5540 5542
5498 5497 5496 5495 5494 5494 5494 5493 5493 5494 5494 5494 5495 5496 5497 5498 5499 5500 5500 5501 5503 5504 5505 5506 5506 5507 5507 5506 5507 5508 5510 5512 5512 5513 5514 5515 5515 5517 5518 5519 5520 5522 5524
5485 5484 5482 5481 5481 5480 5479 5479 5479 5480 5480 5480 5480 5481 5482 5483 5483 5484 5484 5485 5486 5487 5488 5489 5490 5490 5491 5491 5491 5492 5493 5494 5494 5495 5496 5497 5498 5499 5500 5501 5503 5504 5506
5472 5470 5469 5468 5467 5466 5466 5465 5465 5465 5466 5466 5466 5466 5467 5467 5467 5468 5468 5469 5469 5470 5471 5472 5473 5473 5474 5474 5474 5475 5475 5476 5476 5477 5479 5480 5481 5482 5483 5484 5485 5486 5488
5458 5457 5456 5454 5453 5452 5452 5451 5451 5451 5451 5451 5452 5452 5452 5452 5452 5452 5453 5453 5453 5453 5454 5455 5456 5456 5456 5457 5457 5457 5458 5458 5459 5461 5462 5463 5464 5465 5465 5466 5467 5468 5470
5445 5444 5442 5441 5440 5439 5438 5437 5437 5437 5437 5437 5437 5437 5437 5437 5436 5436 5436 5436 5436 5437 5437 5438 5438 5438 5439 5439 5440 5440 5440 5441 5442 5444 5445 5445 5446 5447 5448 5449 5450 5451 5453
5432 5431 5429 5428 5427 5425 5425 5424 5423 5423 5422 5422 5422 5422 5422 5422 5421 5421 5421 5421 5421 5421 5421 5421 5421 5422 5422 5423 5423 5424 5424 5424 5425 5426 5427 5428 5429 5430 5431 5432 5433 5434 5436
5419 5418 5416 5414 5413 5412 5411 5410 5409 5409 5408 5407 5407 5407 5407 5407 5406 5406 5406 5405 5405 5405 5405 5405 5405 5405 5406 5406 5407 5407 5408 5408 5409 5410 5411 5412 5413 5414 5415 5416 5417 5418 5420
5406 5404 5402 5401 5400 5398 5397 5397 5396 5395 5394 5393 5392 5392 5392 5391 5391 5391 5391 5390 5390 5389 5389 5389 5389 5390 5390 5390 5391 5391 5392 5392 5393 5394 5395 5396 5397 5398 5399 5400 5401 5403 5404
5394 5391 5389 5388 5386 5385 5384 5382 5382 5381 5380 5379 5378 5377 5377 5377 5376 5376 5376 5376 5375 5375 5374 5374 5374 5374 5374 5375 5375 5376 5376 5377 5378 5379 5379 5380 5381 5383 5384 5385 5386 5388 5389
5381 5379 5377 5375 5373 5371 5370 5369 5368 5367 5366 5366 5365 5364 5363 5362 5362 5362 5361 5361 5361 5360 5360 5360 5360 5360 5360 5360 5361 5361 5361 5362 5363 5364 5364 5365 5366 5368 5369 5370 5371 5373 5374
5369 5367 5365 5363 5360 5359 5357 5356 5355 5354 5353 5352 5351 5351 5349 5348 5348 5348 5347 5347 5347 5346 5346 5346 5346 5346 5346 5346 5346 5346 5347 5347 5348 5349 5350 5351 5352 5353 5354 5355 5356 5358 5359
5358 5355 5353 5350 5348 5347 5345 5344 5343 5341 5340 5339 5338 5337 5336 5335 5335 5335 5334 5334 5333 5333 5333 5332 5332 5332 5332 5331 5332 5332 5332 5333 5334 5334 5335 5336 5337 5338 5339 5340 5341 5343 5344
5347 5344 5342 5339 5337 5335 5334 5332 5331 5329 5328 5327 5326 5325 5324 5323 5322 5322 5321 5321 5320 5320 5319 5319 5319 5319 5319 5318 5318 5318 5318 5319 5320 5320 5321 5322 5323 5324 5325 5326 5327 5328 5329
5336 5334 5331 5329 5327 5325 5323 5321 5319 5318 5316 5315 5314 5313 5312 5311 5310 5309 5309 5308 5308 5307 5307 5306 5306 5306 5306 5305 5305 5305 5305 5306 5306 5307 5307 5308 5309 5310 5311 5312 5313 5314 5315
5326 5324 5321 5319 5317 5315 5312 5310 5308 5307 5305 5304 5303 5302 5301 5300 5299 5298 5297 5297 5296 5295 5295 5294 5294 5294 5293 5292 5292 5292 5292 5293 5293 5293 5294 5295 5296 5297 5298 5299 5300 5301 5302
5316 5314 5311 5309 5307 5304 5302 5300 5298 5297 5295 5294 5293 5292 5291 5290 5289 5288 5287 5286 5285 5284 5283 5283 5282 5282 5281 5280 5280 5280 5280 5280 5281 5281 5282 5283 5284 5285 5286 5287 5287 5288 5289
5306 5304 5302 5299 5297 5295 5293 5291 5289 5287 5286 5285 5283 5282 5281 5280 5278 5277 5276 5275 5274 5273 5272 5271 5271 5270 5270 5269 5269 5269 5268 5268 5269 5269 5270 5271 5272 5273 5274 5274 5275 5276 5277